Location: Acton
(51.4942°N, 0.2232°W)
Time: 14:54:43
(UTC+00:00)

USA 234 - Pass Details

Date: 18 September 2020
Orbit: 1102 x 1106 km, 123.0° (Epoch: 16 October)

Event Time Altitude Azimuth Distance (km) Brightness Sun altitude
Rises 23:43:30 0° 78° (ENE) 3,922 6.3 -37.1°
Reaches altitude 10° 23:46:01 10° 74° (ENE) 2,965 5.6 -37.1°
Enters shadow 23:50:38 44° 46° (NE) 1,494 4.1 -37.1°
Exits shadow 23:54:28 40° 307° (NW) 1,573 4.2 -37.1°
Drops below altitude 10° 23:58:43 10° 284° (WNW) 2,966 5.6 -37.1°
Sets 00:01:15 0° 280° (W) 3,925 6.2 -37.1°
